Hourly Data Report for September 19, 2017

All times are specified in Local Standard Time (LST). Add 1 hour to adjust for Daylight Saving Time where and when it is observed.

NORTH CAPE
PRINCE EDWARD ISLAND

47°03'29.000" N
63°59'55.000" W
7.60 m
8300516
71987
WNE

Download Data

Hourly Data (September 2017)
Hourly Data Report for September 19, 2017
Temp Definition
°C
Dew Point Temp Definition
°C
Rel Hum Definition
%
Wind Dir Definition
10's deg

Wind Spd Definition
km/h
Visibility Definition
km
Stn Press Definition
kPa
Hmdx Definition


Wind Chill Definition


Weather Definition


TIME
00:00 14.5 13.7 95 16 12   102.31     LegendNANA
01:00 14.8 14.1 95 20 12   102.31     LegendNANA
02:00 15.5 14.1 91 19 14   102.28     LegendNANA
03:00 15.4 14.1 92 18 13   102.26     LegendNANA
04:00 15.5 14.0 91 18 12   102.27     LegendNANA
05:00 15.2 13.8 91 17 8   102.27     LegendNANA
06:00 15.0 13.6 92 19 10   102.31     LegendNANA
07:00 15.1 13.8 92 18 11   102.33     LegendNANA
08:00 15.9 14.2 89 20 13   102.33     LegendNANA
09:00 17.8 14.9 83 19 12   102.31     LegendNANA
10:00 17.8 14.9 83 16 9   102.32     LegendNANA
11:00 18.7 15.5 82 15 14   102.29     LegendNANA
12:00 18.6 15.4 82 15 15   102.25     LegendNANA
13:00 18.5 15.3 82 15 13   102.19     LegendNANA
14:00 18.9 15.6 81 17 15   102.13     LegendNANA
15:00 18.4 15.7 84 16 17   102.08     LegendNANA
16:00 18.6 15.9 85 16 12   102.06     LegendNANA
17:00 17.5 15.6 89 16 14   102.01     LegendNANA
18:00 17.3 15.6 90 17 10   101.98     LegendNANA
19:00 17.4 15.7 90 17 10   101.99     LegendNANA
20:00 17.4 15.8 90 17 10   101.97     LegendNANA
21:00 16.9 15.6 92 17 8   101.95     LegendNANA
22:00 17.1 16.0 93 17 11   101.94     LegendNANA
23:00 16.8 15.8 94 17 11   101.90     LegendNANA

Notes on Data Quality.

Legend

  • E = Estimated
  • M = Missing
  • NA = Not Available
  • ‡ = Partner data that is not subject to review by the National Climate Archives
Date modified: